Kuiper-00105

operational
NORAD ID: 65143 Int'l Des: 2025-171 Owner: KUIP Country: US Constellation: kuiper
LEOCIRCULAR

Über Kuiper-00105

Beschreibung wird geladen...

Live-Position

3D-Globus wird geladen...

Nächste Überflüge

Höhenverlauf

Altitude vs Time

uPlot chart will show altitude changes over time

Zweizeiliger Elementsatz

1 65143U 25171M 25351.21540897 .00012470 00000-0 16604-2 0 9990
2 65143 51.8976 170.3516 0012573 187.5749 172.5026 14.79920268 20574
Epoch: 17. Dez. 2025 • Age: 14 hours

Aktueller Status

Höhe 622.3 km
Geschwindigkeit 7.55 km/s
Subsatellitenpunkt -5.12°S, 19.46°W
Startdatum 11. Aug. 2025
Alter 0.3 years
Typ internet

Technische Details

Klassifizierung Payload
Masse 490.00 kg
Trockenmasse 490.00 kg
Gesamtmasse 490.00 kg
Länge 1.80 m
Durchmesser 0.70 m
Spannweite 5.00 m
Form Box + 2 pan
Hersteller KUIP
Bus-Typ Kuiper
Phasenstatus In Orbit
Besitzer/Staat KUIP/US

Große Konstellationen

Loading constellations...